Time,TemperatureF,DewpointF,PressureIn,WindDirection,WindDirectionDegrees,WindSpeedMPH,WindSpeedGustMPH,Humidity,HourlyPrecipIn,Conditions,Clouds,dailyrainin,SoftwareType,DateUTC
2013-01-09 00:05:00,40.5,10.7,30.42,North,349,0.0,0.0,29,0.00,,,0.00,Wunderground v.1.15,2013-01-09 05:05:00,
2013-01-09 00:10:00,40.7,13.1,30.41,North,349,0.0,0.0,32,0.00,,,0.00,Wunderground v.1.15,2013-01-09 05:10:00,
2013-01-09 00:15:00,40.7,14.5,30.41,North,349,0.0,0.0,34,0.00,,,0.00,Wunderground v.1.15,2013-01-09 05:15:00,
2013-01-09 00:20:00,40.7,13.8,30.42,North,349,0.0,0.0,33,0.00,,,0.00,Wunderground v.1.15,2013-01-09 05:20:00,
2013-01-09 00:25:00,40.8,13.9,30.42,North,349,0.0,0.0,33,0.00,,,0.00,Wunderground v.1.15,2013-01-09 05:25:00,
2013-01-09 00:30:00,40.9,13.3,30.42,North,349,0.0,0.0,32,0.00,,,0.00,Wunderground v.1.15,2013-01-09 05:30:00,
2013-01-09 00:35:00,41.0,13.4,30.42,North,349,0.0,0.0,32,0.00,,,0.00,Wunderground v.1.15,2013-01-09 05:35:00,
2013-01-09 00:45:00,41.1,12.7,30.42,North,349,0.0,0.0,31,0.00,,,0.00,Wunderground v.1.15,2013-01-09 05:45:00,
2013-01-09 00:50:00,41.2,13.5,30.42,North,349,0.0,0.0,32,0.00,,,0.00,Wunderground v.1.15,2013-01-09 05:50:00,
2013-01-09 00:55:00,41.2,13.5,30.42,North,349,0.0,0.0,32,0.00,,,0.00,Wunderground v.1.15,2013-01-09 05:55:00,
2013-01-09 01:00:00,41.3,13.6,30.42,North,349,0.0,2.0,32,0.00,,,0.00,Wunderground v.1.15,2013-01-09 06:00:00,
2013-01-09 01:05:00,41.4,13.7,30.42,North,349,0.0,2.0,32,0.00,,,0.00,Wunderground v.1.15,2013-01-09 06:05:00,
2013-01-09 01:15:00,41.4,14.4,30.42,North,349,0.0,2.0,33,0.00,,,0.00,Wunderground v.1.15,2013-01-09 06:15:00,
2013-01-09 01:20:00,41.4,13.7,30.42,North,349,0.0,2.0,32,0.00,,,0.00,Wunderground v.1.15,2013-01-09 06:20:00,
2013-01-09 01:25:00,41.4,13.7,30.42,North,349,0.0,2.0,32,0.00,,,0.00,Wunderground v.1.15,2013-01-09 06:25:00,
2013-01-09 01:30:00,41.5,13.8,30.42,North,349,0.0,2.0,32,0.00,,,0.00,Wunderground v.1.15,2013-01-09 06:30:00,
2013-01-09 01:35:00,41.5,14.5,30.42,North,349,0.0,2.0,33,0.00,,,0.00,Wunderground v.1.15,2013-01-09 06:35:00,
2013-01-09 01:40:00,41.5,14.5,30.42,North,349,0.0,2.0,33,0.00,,,0.00,Wunderground v.1.15,2013-01-09 06:40:00,
2013-01-09 01:50:00,41.5,13.8,30.42,North,349,0.0,2.0,32,0.00,,,0.00,Wunderground v.1.15,2013-01-09 06:50:00,
2013-01-09 01:55:00,41.5,12.3,30.42,North,349,0.0,2.0,30,0.00,,,0.00,Wunderground v.1.15,2013-01-09 06:55:00,
2013-01-09 02:00:00,41.6,13.2,30.42,North,349,0.0,2.0,31,0.00,,,0.00,Wunderground v.1.15,2013-01-09 07:00:00,
2013-01-09 02:05:00,41.6,13.9,30.42,North,349,0.0,2.0,32,0.00,,,0.00,Wunderground v.1.15,2013-01-09 07:05:00,
2013-01-09 02:10:00,41.6,13.9,30.42,North,349,0.0,2.0,32,0.00,,,0.00,Wunderground v.1.15,2013-01-09 07:10:00,
2013-01-09 02:20:00,41.7,12.5,30.42,North,349,0.0,2.0,30,0.00,,,0.00,Wunderground v.1.15,2013-01-09 07:20:00,
2013-01-09 02:25:00,41.7,13.2,30.42,North,349,0.0,2.0,31,0.00,,,0.00,Wunderground v.1.15,2013-01-09 07:25:00,
2013-01-09 02:30:00,41.7,11.7,30.43,North,349,0.0,2.0,29,0.00,,,0.00,Wunderground v.1.15,2013-01-09 07:30:00,
2013-01-09 02:35:00,41.8,11.0,30.42,North,349,0.0,2.0,28,0.00,,,0.00,Wunderground v.1.15,2013-01-09 07:35:00,
2013-01-09 02:40:00,41.9,11.9,30.42,North,349,0.0,2.0,29,0.00,,,0.00,Wunderground v.1.15,2013-01-09 07:40:00,
2013-01-09 02:45:00,41.9,11.9,30.42,North,349,0.0,2.0,29,0.00,,,0.00,Wunderground v.1.15,2013-01-09 07:45:00,
2013-01-09 02:50:00,42.0,10.4,30.42,North,349,0.0,2.0,27,0.00,,,0.00,Wunderground v.1.15,2013-01-09 07:50:00,
2013-01-09 02:55:00,42.1,9.6,30.42,North,349,0.0,2.0,26,0.00,,,0.00,Wunderground v.1.15,2013-01-09 07:55:00,
2013-01-09 03:01:00,42.2,10.6,30.41,North,349,0.0,0.0,27,0.00,,,0.00,Wunderground v.1.15,2013-01-09 08:01:00,
2013-01-09 03:10:00,42.3,10.6,30.41,North,349,0.0,0.0,27,0.00,,,0.00,Wunderground v.1.15,2013-01-09 08:10:00,
2013-01-09 03:15:00,42.3,11.5,30.41,North,349,0.0,0.0,28,0.00,,,0.00,Wunderground v.1.15,2013-01-09 08:15:00,
2013-01-09 03:25:00,42.4,9.9,30.42,North,349,0.0,0.0,26,0.00,,,0.00,Wunderground v.1.15,2013-01-09 08:25:00,
2013-01-09 03:30:00,42.5,10.0,30.42,North,349,0.0,0.0,26,0.00,,,0.00,Wunderground v.1.15,2013-01-09 08:30:00,
2013-01-09 03:35:00,42.6,10.9,30.41,North,349,0.0,0.0,27,0.00,,,0.00,Wunderground v.1.15,2013-01-09 08:35:00,
2013-01-09 03:40:00,42.6,10.9,30.41,North,349,0.0,0.0,27,0.00,,,0.00,Wunderground v.1.15,2013-01-09 08:40:00,
2013-01-09 03:45:00,42.6,11.7,30.41,North,349,0.0,0.0,28,0.00,,,0.00,Wunderground v.1.15,2013-01-09 08:45:00,
2013-01-09 03:55:00,42.7,11.0,30.41,North,349,0.0,0.0,27,0.00,,,0.00,Wunderground v.1.15,2013-01-09 08:55:00,
2013-01-09 04:00:00,42.7,10.1,30.41,North,349,0.0,0.0,26,0.00,,,0.00,Wunderground v.1.15,2013-01-09 09:00:00,
2013-01-09 04:05:00,42.8,10.2,30.42,North,349,0.0,0.0,26,0.00,,,0.00,Wunderground v.1.15,2013-01-09 09:05:00,
2013-01-09 04:10:00,42.9,7.6,30.42,North,349,0.0,0.0,23,0.00,,,0.00,Wunderground v.1.15,2013-01-09 09:10:00,
2013-01-09 04:15:00,43.1,6.8,30.41,North,349,0.0,0.0,22,0.00,,,0.00,Wunderground v.1.15,2013-01-09 09:15:00,
2013-01-09 04:20:00,43.1,7.7,30.41,North,349,0.0,0.0,23,0.00,,,0.00,Wunderground v.1.15,2013-01-09 09:20:00,
2013-01-09 06:00:00,43.8,6.3,30.40,North,349,0.0,0.0,21,0.00,,,0.00,Wunderground v.1.15,2013-01-09 11:00:00,
2013-01-09 06:10:00,43.9,6.4,30.40,North,349,0.0,0.0,21,0.00,,,0.00,Wunderground v.1.15,2013-01-09 11:10:00,
2013-01-09 06:15:00,43.9,6.4,30.40,North,349,0.0,0.0,21,0.00,,,0.00,Wunderground v.1.15,2013-01-09 11:15:00,
2013-01-09 06:20:00,44.0,6.5,30.40,North,349,0.0,0.0,21,0.00,,,0.00,Wunderground v.1.15,2013-01-09 11:20:00,
2013-01-09 06:25:00,44.0,7.5,30.40,North,349,0.0,0.0,22,0.00,,,0.00,Wunderground v.1.15,2013-01-09 11:25:00,
2013-01-09 06:30:00,44.0,7.5,30.40,North,349,0.0,0.0,22,0.00,,,0.00,Wunderground v.1.15,2013-01-09 11:30:00,
2013-01-09 06:40:00,44.1,6.6,30.40,North,349,0.0,0.0,21,0.00,,,0.00,Wunderground v.1.15,2013-01-09 11:40:00,
2013-01-09 06:45:00,44.1,6.6,30.40,North,349,0.0,0.0,21,0.00,,,0.00,Wunderground v.1.15,2013-01-09 11:45:00,
2013-01-09 06:50:00,44.2,6.7,30.40,North,349,0.0,0.0,21,0.00,,,0.00,Wunderground v.1.15,2013-01-09 11:50:00,
2013-01-09 06:55:00,44.2,7.7,30.40,North,349,0.0,0.0,22,0.00,,,0.00,Wunderground v.1.15,2013-01-09 11:55:00,
2013-01-09 07:00:00,44.2,6.7,30.40,North,349,0.0,0.0,21,0.00,,,0.00,Wunderground v.1.15,2013-01-09 12:00:00,
2013-01-09 07:10:00,44.3,5.7,30.40,North,349,0.0,0.0,20,0.00,,,0.00,Wunderground v.1.15,2013-01-09 12:10:00,
2013-01-09 07:15:00,44.3,5.7,30.41,North,349,0.0,0.0,20,0.00,,,0.00,Wunderground v.1.15,2013-01-09 12:15:00,
2013-01-09 07:20:00,44.2,5.6,30.41,North,349,0.0,0.0,20,0.00,,,0.00,Wunderground v.1.15,2013-01-09 12:20:00,
2013-01-09 07:25:00,44.1,5.5,30.41,North,349,0.0,0.0,20,0.00,,,0.00,Wunderground v.1.15,2013-01-09 12:25:00,
2013-01-09 07:30:00,44.2,4.5,30.41,North,349,0.0,1.0,19,0.00,,,0.00,Wunderground v.1.15,2013-01-09 12:30:00,
2013-01-09 07:35:00,44.1,4.4,30.42,North,349,0.0,1.0,19,0.00,,,0.00,Wunderground v.1.15,2013-01-09 12:35:00,
2013-01-09 07:40:00,44.0,5.4,30.42,North,349,0.0,0.0,20,0.00,,,0.00,Wunderground v.1.15,2013-01-09 12:40:00,
2013-01-09 07:45:00,43.9,5.3,30.42,North,349,0.0,0.0,20,0.00,,,0.00,Wunderground v.1.15,2013-01-09 12:45:00,
2013-01-09 07:50:00,43.8,5.3,30.43,North,349,0.0,0.0,20,0.00,,,0.00,Wunderground v.1.15,2013-01-09 12:50:00,
2013-01-09 07:55:00,43.8,5.3,30.43,North,349,0.0,0.0,20,0.00,,,0.00,Wunderground v.1.15,2013-01-09 12:55:00,
2013-01-09 08:00:00,43.6,6.2,30.43,North,349,0.0,0.0,21,0.00,,,0.00,Wunderground v.1.15,2013-01-09 13:00:00,
2013-01-09 08:05:00,43.5,5.0,30.43,North,349,0.0,0.0,20,0.00,,,0.00,Wunderground v.1.15,2013-01-09 13:05:00,
2013-01-09 08:15:00,43.6,5.1,30.43,North,349,0.0,0.0,20,0.00,,,0.00,Wunderground v.1.15,2013-01-09 13:15:00,
2013-01-09 08:20:00,43.6,5.1,30.43,North,349,0.0,0.0,20,0.00,,,0.00,Wunderground v.1.15,2013-01-09 13:20:00,
2013-01-09 08:25:00,43.4,4.9,30.44,North,349,0.0,0.0,20,0.00,,,0.00,Wunderground v.1.15,2013-01-09 13:25:00,
2013-01-09 08:30:00,43.3,4.8,30.44,North,349,0.0,0.0,20,0.00,,,0.00,Wunderground v.1.15,2013-01-09 13:30:00,
2013-01-09 08:35:00,43.3,4.8,30.44,North,349,0.0,0.0,20,0.00,,,0.00,Wunderground v.1.15,2013-01-09 13:35:00,
2013-01-09 08:45:00,43.5,3.9,30.44,North,349,0.0,0.0,19,0.00,,,0.00,Wunderground v.1.15,2013-01-09 13:45:00,
2013-01-09 08:50:00,43.7,4.1,30.44,North,349,0.0,0.0,19,0.00,,,0.00,Wunderground v.1.15,2013-01-09 13:50:00,
2013-01-09 08:55:00,43.8,4.1,30.44,North,349,0.0,0.0,19,0.00,,,0.00,Wunderground v.1.15,2013-01-09 13:55:00,
2013-01-09 09:00:00,44.0,4.3,30.44,North,349,0.0,0.0,19,0.00,,,0.00,Wunderground v.1.15,2013-01-09 14:00:00,
2013-01-09 09:10:00,44.3,5.7,30.44,North,349,0.0,0.0,20,0.00,,,0.00,Wunderground v.1.15,2013-01-09 14:10:00,
2013-01-09 09:20:00,44.9,6.2,30.45,North,349,0.0,0.0,20,0.00,,,0.00,Wunderground v.1.15,2013-01-09 14:20:00,
2013-01-09 09:25:00,45.1,6.3,30.44,North,349,0.0,0.0,20,0.00,,,0.00,Wunderground v.1.15,2013-01-09 14:25:00,
2013-01-09 09:30:00,45.7,6.8,30.44,North,349,0.0,0.0,20,0.00,,,0.00,Wunderground v.1.15,2013-01-09 14:30:00,
2013-01-09 09:35:00,46.3,8.4,30.44,North,349,0.0,0.0,21,0.00,,,0.00,Wunderground v.1.15,2013-01-09 14:35:00,
2013-01-09 09:40:00,46.8,8.8,30.44,North,349,0.0,0.0,21,0.00,,,0.00,Wunderground v.1.15,2013-01-09 14:40:00,
2013-01-09 09:50:00,47.8,9.7,30.45,North,349,0.0,0.0,21,0.00,,,0.00,Wunderground v.1.15,2013-01-09 14:50:00,
2013-01-09 09:55:00,48.2,10.0,30.45,North,349,0.0,0.0,21,0.00,,,0.00,Wunderground v.1.15,2013-01-09 14:55:00,
2013-01-09 10:00:00,48.7,10.4,30.45,North,349,0.0,0.0,21,0.00,,,0.00,Wunderground v.1.15,2013-01-09 15:00:00,
2013-01-09 10:05:00,49.0,9.6,30.45,North,349,0.0,0.0,20,0.00,,,0.00,Wunderground v.1.15,2013-01-09 15:05:00,
2013-01-09 10:10:00,49.2,8.6,30.45,NNW,329,0.0,0.0,19,0.00,,,0.00,Wunderground v.1.15,2013-01-09 15:10:00,
2013-01-09 10:15:00,49.3,9.9,30.45,NNW,329,0.0,0.0,20,0.00,,,0.00,Wunderground v.1.15,2013-01-09 15:15:00,
2013-01-09 10:25:00,49.6,12.2,30.46,NNW,329,0.0,0.0,22,0.00,,,0.00,Wunderground v.1.15,2013-01-09 15:25:00,
2013-01-09 10:30:00,49.7,12.3,30.45,NNW,329,0.0,0.0,22,0.00,,,0.00,Wunderground v.1.15,2013-01-09 15:30:00,
2013-01-09 10:35:00,49.7,13.3,30.45,NNW,329,0.0,0.0,23,0.00,,,0.00,Wunderground v.1.15,2013-01-09 15:35:00,
2013-01-09 10:40:00,49.8,14.4,30.45,NNW,329,0.0,0.0,24,0.00,,,0.00,Wunderground v.1.15,2013-01-09 15:40:00,
2013-01-09 10:45:00,49.8,15.3,30.45,NNW,329,0.0,0.0,25,0.00,,,0.00,Wunderground v.1.15,2013-01-09 15:45:00,
2013-01-09 10:55:00,49.8,15.3,30.45,NNW,329,0.0,0.0,25,0.00,,,0.00,Wunderground v.1.15,2013-01-09 15:55:00,
2013-01-09 11:00:00,49.8,16.2,30.45,NNW,329,0.0,0.0,26,0.00,,,0.00,Wunderground v.1.15,2013-01-09 16:00:00,
2013-01-09 11:05:00,49.9,16.3,30.45,NNW,329,0.0,0.0,26,0.00,,,0.00,Wunderground v.1.15,2013-01-09 16:05:00,
2013-01-09 11:10:00,49.9,16.3,30.45,NNW,329,0.0,0.0,26,0.00,,,0.00,Wunderground v.1.15,2013-01-09 16:10:00,
2013-01-09 11:15:00,49.9,18.0,30.45,NNW,329,0.0,0.0,28,0.00,,,0.00,Wunderground v.1.15,2013-01-09 16:15:00,
2013-01-09 11:20:00,50.0,18.1,30.44,NNW,329,0.0,0.0,28,0.00,,,0.00,Wunderground v.1.15,2013-01-09 16:20:00,
2013-01-09 11:30:00,50.0,18.9,30.44,NNW,329,0.0,0.0,29,0.00,,,0.00,Wunderground v.1.15,2013-01-09 16:30:00,
2013-01-09 11:35:00,50.0,18.9,30.44,NNW,329,0.0,0.0,29,0.00,,,0.00,Wunderground v.1.15,2013-01-09 16:35:00,
2013-01-09 11:40:00,50.1,19.0,30.44,NNW,329,0.0,0.0,29,0.00,,,0.00,Wunderground v.1.15,2013-01-09 16:40:00,
2013-01-09 11:45:00,50.1,18.2,30.43,NNW,329,0.0,0.0,28,0.00,,,0.00,Wunderground v.1.15,2013-01-09 16:45:00,
2013-01-09 11:50:00,50.3,18.4,30.43,NNW,329,0.0,0.0,28,0.00,,,0.00,Wunderground v.1.15,2013-01-09 16:50:00,
2013-01-09 12:00:00,50.4,18.5,30.43,NNW,329,0.0,0.0,28,0.00,,,0.00,Wunderground v.1.15,2013-01-09 17:00:00,
2013-01-09 12:10:00,50.7,21.1,30.42,NNW,329,0.0,0.0,31,0.00,,,0.00,Wunderground v.1.15,2013-01-09 17:10:00,
2013-01-09 12:15:00,50.9,22.8,30.42,NNW,329,0.0,0.0,33,0.00,,,0.00,Wunderground v.1.15,2013-01-09 17:15:00,
2013-01-09 12:20:00,51.0,23.6,30.42,NNW,329,0.0,0.0,34,0.00,,,0.00,Wunderground v.1.15,2013-01-09 17:20:00,
2013-01-09 12:25:00,51.1,24.4,30.42,NNW,329,0.0,0.0,35,0.00,,,0.00,Wunderground v.1.15,2013-01-09 17:25:00,
2013-01-09 12:35:00,51.0,25.0,30.41,NNW,329,0.0,0.0,36,0.00,,,0.00,Wunderground v.1.15,2013-01-09 17:35:00,
2013-01-09 12:40:00,51.0,24.3,30.41,NNW,329,0.0,0.0,35,0.00,,,0.00,Wunderground v.1.15,2013-01-09 17:40:00,
2013-01-09 12:45:00,51.0,23.6,30.41,NNW,329,0.0,0.0,34,0.00,,,0.00,Wunderground v.1.15,2013-01-09 17:45:00,
2013-01-09 12:50:00,51.0,22.9,30.41,NNW,329,0.0,0.0,33,0.00,,,0.00,Wunderground v.1.15,2013-01-09 17:50:00,
2013-01-09 12:55:00,51.0,22.9,30.40,NNW,329,0.0,0.0,33,0.00,,,0.00,Wunderground v.1.15,2013-01-09 17:55:00,
2013-01-09 13:05:00,51.1,22.2,30.39,NNW,329,0.0,0.0,32,0.00,,,0.00,Wunderground v.1.15,2013-01-09 18:05:00,
2013-01-09 13:10:00,51.1,22.2,30.39,NNW,329,0.0,0.0,32,0.00,,,0.00,Wunderground v.1.15,2013-01-09 18:10:00,
2013-01-09 13:15:00,51.1,20.7,30.40,NNW,329,0.0,0.0,30,0.00,,,0.00,Wunderground v.1.15,2013-01-09 18:15:00,
2013-01-09 13:20:00,51.2,20.8,30.39,NNW,329,0.0,0.0,30,0.00,,,0.00,Wunderground v.1.15,2013-01-09 18:20:00,
2013-01-09 13:25:00,51.2,20.8,30.39,NNW,329,0.0,0.0,30,0.00,,,0.00,Wunderground v.1.15,2013-01-09 18:25:00,
2013-01-09 13:30:00,51.2,20.8,30.40,NNW,329,0.0,0.0,30,0.00,,,0.00,Wunderground v.1.15,2013-01-09 18:30:00,
2013-01-09 13:35:00,51.2,20.8,30.40,NNW,329,0.0,0.0,30,0.00,,,0.00,Wunderground v.1.15,2013-01-09 18:35:00,
2013-01-09 13:40:00,51.2,20.0,30.39,NNW,329,0.0,0.0,29,0.00,,,0.00,Wunderground v.1.15,2013-01-09 18:40:00,
2013-01-09 13:45:00,51.2,20.0,30.39,NNW,329,0.0,0.0,29,0.00,,,0.00,Wunderground v.1.15,2013-01-09 18:45:00,
2013-01-09 13:50:00,51.1,19.1,30.39,NNW,329,0.0,0.0,28,0.00,,,0.00,Wunderground v.1.15,2013-01-09 18:50:00,
2013-01-09 13:55:00,51.2,19.2,30.39,NNW,329,0.0,0.0,28,0.00,,,0.00,Wunderground v.1.15,2013-01-09 18:55:00,
2013-01-09 14:00:00,51.2,18.3,30.40,NNW,329,0.0,0.0,27,0.00,,,0.00,Wunderground v.1.15,2013-01-09 19:00:00,
2013-01-09 14:05:00,51.2,18.3,30.40,NNW,329,0.0,0.0,27,0.00,,,0.00,Wunderground v.1.15,2013-01-09 19:05:00,
2013-01-09 14:10:00,51.3,16.6,30.39,NNW,329,0.0,0.0,25,0.00,,,0.00,Wunderground v.1.15,2013-01-09 19:10:00,
2013-01-09 14:15:00,51.4,13.8,30.39,NNW,329,0.0,0.0,22,0.00,,,0.00,Wunderground v.1.15,2013-01-09 19:15:00,
2013-01-09 14:20:00,51.4,14.8,30.39,NNW,329,0.0,0.0,23,0.00,,,0.00,Wunderground v.1.15,2013-01-09 19:20:00,
2013-01-09 14:25:00,51.4,13.8,30.39,NNW,329,0.0,0.0,22,0.00,,,0.00,Wunderground v.1.15,2013-01-09 19:25:00,
2013-01-09 14:30:00,51.4,12.7,30.38,NNW,329,0.0,0.0,21,0.00,,,0.00,Wunderground v.1.15,2013-01-09 19:30:00,
2013-01-09 14:40:00,51.3,11.5,30.39,NW,306,0.0,0.0,20,0.00,,,0.00,Wunderground v.1.15,2013-01-09 19:40:00,
2013-01-09 14:45:00,51.3,10.4,30.39,NW,306,0.0,0.0,19,0.00,,,0.00,Wunderground v.1.15,2013-01-09 19:45:00,
2013-01-09 14:50:00,51.3,10.4,30.39,NW,306,0.0,0.0,19,0.00,,,0.00,Wunderground v.1.15,2013-01-09 19:50:00,
2013-01-09 14:55:00,51.3,9.2,30.39,NW,306,0.0,0.0,18,0.00,,,0.00,Wunderground v.1.15,2013-01-09 19:55:00,
2013-01-09 15:01:00,51.3,9.2,30.39,NW,306,0.0,0.0,18,0.00,,,0.00,Wunderground v.1.15,2013-01-09 20:01:00,
2013-01-09 15:10:00,51.3,9.2,30.39,NW,306,0.0,0.0,18,0.00,,,0.00,Wunderground v.1.15,2013-01-09 20:10:00,
2013-01-09 15:15:00,51.3,9.2,30.39,NW,306,0.0,0.0,18,0.00,,,0.00,Wunderground v.1.15,2013-01-09 20:15:00,
2013-01-09 15:20:00,51.2,9.1,30.39,NW,306,0.0,0.0,18,0.00,,,0.00,Wunderground v.1.15,2013-01-09 20:20:00,
2013-01-09 15:25:00,51.2,9.1,30.40,NW,306,0.0,0.0,18,0.00,,,0.00,Wunderground v.1.15,2013-01-09 20:25:00,
2013-01-09 15:31:00,51.2,9.1,30.40,NW,306,0.0,0.0,18,0.00,,,0.00,Wunderground v.1.15,2013-01-09 20:31:00,
2013-01-09 15:40:00,51.1,9.0,30.40,NW,306,0.0,0.0,18,0.00,,,0.00,Wunderground v.1.15,2013-01-09 20:40:00,
2013-01-09 15:50:00,51.1,9.0,30.40,NW,306,0.0,0.0,18,0.00,,,0.00,Wunderground v.1.15,2013-01-09 20:50:00,
2013-01-09 15:55:00,51.1,9.0,30.40,NW,306,0.0,0.0,18,0.00,,,0.00,Wunderground v.1.15,2013-01-09 20:55:00,
2013-01-09 16:00:00,51.1,9.0,30.40,NW,306,0.0,0.0,18,0.00,,,0.00,Wunderground v.1.15,2013-01-09 21:00:00,
2013-01-09 16:05:00,51.2,9.1,30.40,NW,306,0.0,0.0,18,0.00,,,0.00,Wunderground v.1.15,2013-01-09 21:05:00,
2013-01-09 16:10:00,51.2,9.1,30.40,NW,306,0.0,0.0,18,0.00,,,0.00,Wunderground v.1.15,2013-01-09 21:10:00,
2013-01-09 16:15:00,51.2,10.3,30.40,NW,306,0.0,0.0,19,0.00,,,0.00,Wunderground v.1.15,2013-01-09 21:15:00,
2013-01-09 16:20:00,51.1,10.2,30.40,NW,306,0.0,0.0,19,0.00,,,0.00,Wunderground v.1.15,2013-01-09 21:20:00,
2013-01-09 16:25:00,51.1,10.2,30.40,NW,306,0.0,0.0,19,0.00,,,0.00,Wunderground v.1.15,2013-01-09 21:25:00,
2013-01-09 16:30:00,51.1,10.2,30.40,NW,306,0.0,0.0,19,0.00,,,0.00,Wunderground v.1.15,2013-01-09 21:30:00,
2013-01-09 16:35:00,51.1,11.4,30.40,NW,306,0.0,0.0,20,0.00,,,0.00,Wunderground v.1.15,2013-01-09 21:35:00,
2013-01-09 16:40:00,51.1,12.5,30.40,NW,306,0.0,0.0,21,0.00,,,0.00,Wunderground v.1.15,2013-01-09 21:40:00,
2013-01-09 16:45:00,51.0,13.4,30.41,NW,306,0.0,0.0,22,0.00,,,0.00,Wunderground v.1.15,2013-01-09 21:45:00,
2013-01-09 16:55:00,50.9,15.3,30.41,NW,306,0.0,0.0,24,0.00,,,0.00,Wunderground v.1.15,2013-01-09 21:55:00,
2013-01-09 17:00:00,50.8,15.2,30.41,NW,306,0.0,0.0,24,0.00,,,0.00,Wunderground v.1.15,2013-01-09 22:00:00,
2013-01-09 17:05:00,50.7,14.2,30.41,NW,306,0.0,0.0,23,0.00,,,0.00,Wunderground v.1.15,2013-01-09 22:05:00,
2013-01-09 17:10:00,50.6,14.1,30.41,NW,306,0.0,0.0,23,0.00,,,0.00,Wunderground v.1.15,2013-01-09 22:10:00,
2013-01-09 17:15:00,50.5,15.0,30.41,NW,306,0.0,0.0,24,0.00,,,0.00,Wunderground v.1.15,2013-01-09 22:15:00,
2013-01-09 17:25:00,50.3,15.8,30.41,NW,306,0.0,0.0,25,0.00,,,0.00,Wunderground v.1.15,2013-01-09 22:25:00,
2013-01-09 17:30:00,50.1,15.6,30.41,NW,306,0.0,0.0,25,0.00,,,0.00,Wunderground v.1.15,2013-01-09 22:30:00,
2013-01-09 17:35:00,50.0,14.6,30.41,NW,306,0.0,0.0,24,0.00,,,0.00,Wunderground v.1.15,2013-01-09 22:35:00,
2013-01-09 17:40:00,49.9,13.5,30.41,NW,306,0.0,0.0,23,0.00,,,0.00,Wunderground v.1.15,2013-01-09 22:40:00,
2013-01-09 17:45:00,49.8,12.4,30.41,NW,306,0.0,0.0,22,0.00,,,0.00,Wunderground v.1.15,2013-01-09 22:45:00,
2013-01-09 17:50:00,49.6,12.2,30.41,NW,306,0.0,0.0,22,0.00,,,0.00,Wunderground v.1.15,2013-01-09 22:50:00,
2013-01-09 18:00:00,49.4,12.1,30.41,NW,306,0.0,0.0,22,0.00,,,0.00,Wunderground v.1.15,2013-01-09 23:00:00,
2013-01-09 18:10:00,49.2,10.9,30.41,NW,306,0.0,0.0,21,0.00,,,0.00,Wunderground v.1.15,2013-01-09 23:10:00,
2013-01-09 18:15:00,49.1,9.7,30.41,NW,306,0.0,0.0,20,0.00,,,0.00,Wunderground v.1.15,2013-01-09 23:15:00,
2013-01-09 18:20:00,49.0,9.6,30.41,NW,306,0.0,0.0,20,0.00,,,0.00,Wunderground v.1.15,2013-01-09 23:20:00,
2013-01-09 18:30:00,48.8,9.4,30.41,NW,306,0.0,0.0,20,0.00,,,0.00,Wunderground v.1.15,2013-01-09 23:30:00,
2013-01-09 18:35:00,48.7,10.4,30.41,NW,306,0.0,0.0,21,0.00,,,0.00,Wunderground v.1.15,2013-01-09 23:35:00,
2013-01-09 18:40:00,48.6,9.3,30.41,NW,306,0.0,0.0,20,0.00,,,0.00,Wunderground v.1.15,2013-01-09 23:40:00,
2013-01-09 18:45:00,48.5,9.2,30.41,NW,306,0.0,0.0,20,0.00,,,0.00,Wunderground v.1.15,2013-01-09 23:45:00,
2013-01-09 18:50:00,48.4,9.1,30.41,NW,306,0.0,0.0,20,0.00,,,0.00,Wunderground v.1.15,2013-01-09 23:50:00,
2013-01-09 18:55:00,48.3,7.9,30.41,NW,306,0.0,0.0,19,0.00,,,0.00,Wunderground v.1.15,2013-01-09 23:55:00,
2013-01-09 19:05:00,48.1,8.8,30.40,NW,306,0.0,0.0,20,0.00,,,0.00,Wunderground v.1.15,2013-01-10 00:05:00,
2013-01-09 19:10:00,48.0,8.8,30.40,NW,306,0.0,0.0,20,0.00,,,0.00,Wunderground v.1.15,2013-01-10 00:10:00,
2013-01-09 19:15:00,47.9,8.7,30.40,NW,306,0.0,0.0,20,0.00,,,0.00,Wunderground v.1.15,2013-01-10 00:15:00,
2013-01-09 19:20:00,47.8,7.5,30.40,NW,306,0.0,0.0,19,0.00,,,0.00,Wunderground v.1.15,2013-01-10 00:20:00,
2013-01-09 19:25:00,47.7,7.4,30.41,NW,306,0.0,0.0,19,0.00,,,0.00,Wunderground v.1.15,2013-01-10 00:25:00,
2013-01-09 19:35:00,47.4,7.1,30.41,NW,306,0.0,0.0,19,0.00,,,0.00,Wunderground v.1.15,2013-01-10 00:35:00,
2013-01-09 19:40:00,47.4,7.1,30.41,NW,306,0.0,0.0,19,0.00,,,0.00,Wunderground v.1.15,2013-01-10 00:40:00,
2013-01-09 19:45:00,47.2,7.0,30.41,NW,306,0.0,0.0,19,0.00,,,0.00,Wunderground v.1.15,2013-01-10 00:45:00,
2013-01-09 19:50:00,47.2,7.0,30.41,NW,306,0.0,0.0,19,0.00,,,0.00,Wunderground v.1.15,2013-01-10 00:50:00,
2013-01-09 19:55:00,47.1,6.9,30.41,NW,306,0.0,0.0,19,0.00,,,0.00,Wunderground v.1.15,2013-01-10 00:55:00,
2013-01-09 20:00:00,47.0,6.8,30.41,NW,306,0.0,0.0,19,0.00,,,0.00,Wunderground v.1.15,2013-01-10 01:00:00,
2013-01-09 20:10:00,46.9,6.7,30.41,NW,306,0.0,0.0,19,0.00,,,0.00,Wunderground v.1.15,2013-01-10 01:10:00,
2013-01-09 20:15:00,46.9,6.7,30.42,NW,306,0.0,0.0,19,0.00,,,0.00,Wunderground v.1.15,2013-01-10 01:15:00,
2013-01-09 20:20:00,46.8,6.6,30.42,NW,306,0.0,0.0,19,0.00,,,0.00,Wunderground v.1.15,2013-01-10 01:20:00,
2013-01-09 20:25:00,46.7,6.5,30.42,NW,306,0.0,0.0,19,0.00,,,0.00,Wunderground v.1.15,2013-01-10 01:25:00,
2013-01-09 20:30:00,46.7,6.5,30.42,NW,306,0.0,0.0,19,0.00,,,0.00,Wunderground v.1.15,2013-01-10 01:30:00,
2013-01-09 20:40:00,46.6,6.5,30.42,NW,306,0.0,0.0,19,0.00,,,0.00,Wunderground v.1.15,2013-01-10 01:40:00,
2013-01-09 20:45:00,46.6,6.5,30.42,NW,306,0.0,0.0,19,0.00,,,0.00,Wunderground v.1.15,2013-01-10 01:45:00,
2013-01-09 20:50:00,46.5,6.4,30.42,NW,306,0.0,0.0,19,0.00,,,0.00,Wunderground v.1.15,2013-01-10 01:50:00,
2013-01-09 20:55:00,46.5,6.4,30.42,NW,306,0.0,0.0,19,0.00,,,0.00,Wunderground v.1.15,2013-01-10 01:55:00,
2013-01-09 21:00:00,46.4,6.3,30.42,NW,306,0.0,0.0,19,0.00,,,0.00,Wunderground v.1.15,2013-01-10 02:00:00,
2013-01-09 21:10:00,46.3,6.2,30.43,NW,306,0.0,0.0,19,0.00,,,0.00,Wunderground v.1.15,2013-01-10 02:10:00,
2013-01-09 21:15:00,46.3,6.2,30.43,NW,306,0.0,0.0,19,0.00,,,0.00,Wunderground v.1.15,2013-01-10 02:15:00,
2013-01-09 21:20:00,46.2,6.1,30.43,NW,306,0.0,0.0,19,0.00,,,0.00,Wunderground v.1.15,2013-01-10 02:20:00,
2013-01-09 21:25:00,46.2,6.1,30.43,NW,306,0.0,0.0,19,0.00,,,0.00,Wunderground v.1.15,2013-01-10 02:25:00,
2013-01-09 21:30:00,46.2,6.1,30.43,NW,306,0.0,0.0,19,0.00,,,0.00,Wunderground v.1.15,2013-01-10 02:30:00,
2013-01-09 21:35:00,46.1,6.0,30.43,NW,306,0.0,0.0,19,0.00,,,0.00,Wunderground v.1.15,2013-01-10 02:35:00,
2013-01-09 21:45:00,46.1,6.0,30.43,NW,306,0.0,0.0,19,0.00,,,0.00,Wunderground v.1.15,2013-01-10 02:45:00,
2013-01-09 21:50:00,46.3,6.2,30.43,NW,306,0.0,0.0,19,0.00,,,0.00,Wunderground v.1.15,2013-01-10 02:50:00,
2013-01-09 21:55:00,46.4,6.3,30.43,NW,306,0.0,0.0,19,0.00,,,0.00,Wunderground v.1.15,2013-01-10 02:55:00,
2013-01-09 22:00:00,46.3,6.2,30.43,NW,306,0.0,0.0,19,0.00,,,0.00,Wunderground v.1.15,2013-01-10 03:00:00,
2013-01-09 22:05:00,46.1,6.0,30.43,NW,306,0.0,0.0,19,0.00,,,0.00,Wunderground v.1.15,2013-01-10 03:05:00,
2013-01-09 22:15:00,45.8,5.8,30.44,NW,306,0.0,0.0,19,0.00,,,0.00,Wunderground v.1.15,2013-01-10 03:15:00,
2013-01-09 22:20:00,45.8,5.8,30.45,NW,306,0.0,0.0,19,0.00,,,0.00,Wunderground v.1.15,2013-01-10 03:20:00,
2013-01-09 22:25:00,46.0,6.0,30.45,NW,306,0.0,0.0,19,0.00,,,0.00,Wunderground v.1.15,2013-01-10 03:25:00,
2013-01-09 22:30:00,46.4,7.4,30.45,NW,306,0.0,0.0,20,0.00,,,0.00,Wunderground v.1.15,2013-01-10 03:30:00,
2013-01-09 22:35:00,46.6,7.6,30.45,NW,306,0.0,0.0,20,0.00,,,0.00,Wunderground v.1.15,2013-01-10 03:35:00,
2013-01-09 22:40:00,46.5,7.5,30.45,NW,306,0.0,0.0,20,0.00,,,0.00,Wunderground v.1.15,2013-01-10 03:40:00,
2013-01-09 22:50:00,46.1,7.2,30.45,NW,306,0.0,0.0,20,0.00,,,0.00,Wunderground v.1.15,2013-01-10 03:50:00,
2013-01-09 22:55:00,45.9,7.0,30.45,NW,306,0.0,0.0,20,0.00,,,0.00,Wunderground v.1.15,2013-01-10 03:55:00,
2013-01-09 23:00:00,45.8,6.9,30.45,NW,306,0.0,0.0,20,0.00,,,0.00,Wunderground v.1.15,2013-01-10 04:00:00,
2013-01-09 23:05:00,45.7,6.8,30.45,NW,306,0.0,0.0,20,0.00,,,0.00,Wunderground v.1.15,2013-01-10 04:05:00,
2013-01-09 23:10:00,45.6,6.8,30.45,NW,306,0.0,0.0,20,0.00,,,0.00,Wunderground v.1.15,2013-01-10 04:10:00,
2013-01-09 23:20:00,45.5,6.7,30.45,NW,306,0.0,0.0,20,0.00,,,0.00,Wunderground v.1.15,2013-01-10 04:20:00,
2013-01-09 23:25:00,45.6,6.8,30.45,NW,306,0.0,0.0,20,0.00,,,0.00,Wunderground v.1.15,2013-01-10 04:25:00,
2013-01-09 23:30:00,45.6,6.8,30.45,NW,306,0.0,0.0,20,0.00,,,0.00,Wunderground v.1.15,2013-01-10 04:30:00,
2013-01-09 23:35:00,45.8,6.9,30.46,NW,306,0.0,0.0,20,0.00,,,0.00,Wunderground v.1.15,2013-01-10 04:35:00,
2013-01-09 23:40:00,46.0,7.1,30.46,NW,306,0.0,0.0,20,0.00,,,0.00,Wunderground v.1.15,2013-01-10 04:40:00,
2013-01-09 23:45:00,46.4,7.4,30.46,NW,306,0.0,0.0,20,0.00,,,0.00,Wunderground v.1.15,2013-01-10 04:45:00,
2013-01-09 23:55:00,47.0,9.0,30.46,NW,306,0.0,0.0,21,0.00,,,0.00,Wunderground v.1.15,2013-01-10 04:55:00,